Flag for U.S.A. Weather past 2 weeks in Warminster Township, Pennsylvania, U.S.A.

Now
64 °F

Sunny.


Feels Like: 64 °F
Forecast: 68 / 81 °F
Wind: 7 mph from Northwest

Location: Doylestown Airport

Current Time: Jul 24, 2014 at 7:34:42 AM

Latest Report: Jul 24, 2014 at 6:54 AM


Visibility: 10 mi

Pressure: 29.85 "Hg

Humidity: 100%

Dew point: 64 °F

Location of Warminster TownshipLocation

Historic Weather in Warminster Township — Graph

°F

Warminster Township temperature yesterday

Maximum temperature yesterday: 89 °F (at 3:54 PM)
Minimum temperature yesterday: 67 °F (at 4:54 AM)
Average temperature yesterday: 77 °F

Past Weeks' High & Low Weather Summary

 TemperatureHumidityPressure
High89 °F (Jul 23, 3:54 PM)100% (Jul 11, 1:54 AM)30.23 "Hg (Jul 11, 1:54 AM)
Low59 °F (Jul 18, 1:54 AM)40% (Jul 17, 5:54 PM)29.73 "Hg (Jul 15, 2:54 PM)
Average73 °F76%30.02 "Hg
* Reported Jul 9 8:54 AM — Jul 24 5:54 AM, Warminster Township, Weather by CustomWeather, © 2014

Note: Actual official high and low records may vary slightly from our data, if they occured in-between our weather recording intervals... More about our weather records

Advertising

Warminster Township weather history for previous 24 hours

 ConditionsComfort  
Time TempWeatherWind HumidityBarometerVisibility
5:54 AM
Jul 24
65 °FLight rain. Passing clouds.6 mph100%29.84 "Hg10 mi
4:54 AM66 °FPassing clouds.5 mph100%29.83 "Hg10 mi
3:54 AM66 °FOvercast.5 mph100%29.83 "Hg10 mi
2:54 AM66 °FClear.5 mph100%29.82 "Hg10 mi
1:54 AM68 °FClear.3 mph100%29.84 "Hg10 mi
12:54 AM69 °FClear.No wind100%29.83 "Hg10 mi
11:54 PM
Jul 23
71 °FPassing clouds.3 mph96%29.82 "Hg10 mi
10:54 PM71 °FPassing clouds.3 mph100%29.82 "Hg10 mi
9:54 PM71 °FLight rain. Overcast.6 mph100%29.84 "Hg10 mi
9:03 PM70 °FRain. Partly sunny.6 mph100%29.86 "Hg9 mi
8:54 PM71 °FThunderstorms. Broken clouds.5 mph96%29.84 "Hg10 mi
7:54 PM72 °FStrong thunderstorms. Fog.7 mph87%29.81 "Hg4 mi
6:54 PM85 °FScattered clouds.5 mph61%29.79 "Hg10 mi
5:54 PM86 °FBroken clouds.6 mph59%29.78 "Hg10 mi
4:54 PM89 °FPassing clouds.N/A55%29.79 "Hg10 mi
3:54 PM89 °FPassing clouds.8 mph53%29.81 "Hg10 mi
2:54 PM87 °FScattered clouds.9 mph61%29.84 "Hg10 mi
1:54 PM87 °FBroken clouds.8 mph61%29.86 "Hg10 mi
12:54 PM85 °FMostly cloudy.7 mph65%29.88 "Hg10 mi
11:54 AM85 °FPassing clouds.7 mph63%29.90 "Hg10 mi
10:54 AM83 °FSunny.5 mph70%29.93 "Hg10 mi
9:54 AM79 °FSunny.6 mph77%29.95 "Hg10 mi
8:54 AM76 °FSunny.9 mph80%29.98 "Hg10 mi
7:54 AM72 °FSunny.3 mph87%29.98 "Hg10 mi
Weather by CustomWeather, © 2014

See weather overviewHow to use our weather pages